Omaha, NE

3:30 AM CDT on September 26, 2016 (GMT -0500)
Eppley Airfield

Weather History for KOMA - August, 2012

Change the Weather History Date:

Thursday, August 16, 2012

  Actual Average Record
Temperature  
Mean Temperature 67 °F 75 °F  
Max Temperature 77 °F 85 °F 106 °F (1983)
Min Temperature 57 °F 64 °F 51 °F (1897)
Degree Days  
Heating Degree Days 0 0  
Month to date heating degree days 0 0  
Since 1 June heating degree days 9 18  
Since 1 July heating degree days 0 1  
Cooling Degree Days 2 10  
Month to date cooling degree days 187 171  
Year to date cooling degree days 1387 848  
Since 1 June cooling degree days 1159 766  
Growing Degree Days 20 (Base 50)    
Moisture  
Dew Point 55 °F    
Average Humidity 56    
Maximum Humidity 78    
Minimum Humidity 33    
Precipitation  
Precipitation T in 0.14 in 2.13 in (1884)
Month to date precipitation 1.61 2.03  
Year to date precipitation 15.94 21.32  
Snow  
Snow 0.00 in 0.00 in - ()
Month to date snowfall 0.0 0.0  
Since 1 July snowfall 0.0 0.0  
Snow Depth 0.00 in    
Sea Level Pressure  
Sea Level Pressure 29.98 in    
Wind  
Wind Speed 13 mph (NNW)    
Max Wind Speed 26 mph    
Max Gust Speed 33 mph    
Visibility 10 miles    
Events Rain , Thunderstorm    
T = Trace of Precipitation, MM = Missing Value Source: NWS Daily Summary

Daily Weather History Graph

Daily Weather History Graph

Search for Another Location

Airport or City:

Trip Planner

Search our weather history database for the weather conditions in past years. The results will help you decide how hot, cold, wet, or windy it might be!

Date:

Astronomy

Aug. 16, 2012 Rise Set
Actual Time 6:34 AM CDT 8:20 PM CDT
Civil Twilight 6:04 AM CDT 8:49 PM CDT
Nautical Twilight 5:28 AM CDT 9:25 PM CDT
Astronomical Twilight 4:50 AM CDT 10:04 PM CDT
Moon 5:34 AM CDT (8/16) 7:30 PM CDT (8/16)
Length of Visible Light 14h 45m
Length of Day
13h 46m
Waning Crescent, 1% of the Moon is Illuminated
Aug 16
Waning Crescent
Aug 17
New
Aug 24
First Quarter
Aug 31
Full
Sep 8
Last Quarter

Hourly Weather History & Observations

Time (CDT) Temp. Dew Point Humidity Pressure Visibility Wind Dir Wind Speed Gust Speed Precip Events Conditions
12:03 AM 73.4 °F 69.8 °F 88% 29.82 in 3.0 mi North 8.1 mph - 0.33 in Rain , Thunderstorm Thunderstorms and Rain
12:52 AM 73.4 °F 69.8 °F 88% 29.85 in 10.0 mi NW 5.8 mph - N/A   Overcast
1:00 AM 73.4 °F 68.0 °F 83% 29.84 in 10.0 mi NNW 8.1 mph - N/A Thunderstorm Thunderstorm
1:52 AM 72.0 °F 64.0 °F 76% 29.82 in 10.0 mi NNW 15.0 mph - N/A Thunderstorm Thunderstorm
2:24 AM 69.8 °F 62.6 °F 78% 29.86 in 10.0 mi NNW 19.6 mph - N/A   Mostly Cloudy
2:52 AM 69.1 °F 61.0 °F 75% 29.85 in 10.0 mi NNW 19.6 mph 27.6 mph N/A   Mostly Cloudy
3:14 AM 68.0 °F 60.8 °F 78% 29.89 in 10.0 mi North 23.0 mph 31.1 mph N/A   Mostly Cloudy
3:52 AM 68.0 °F 59.0 °F 73% 29.87 in 10.0 mi North 20.7 mph 29.9 mph N/A   Overcast
4:52 AM 66.9 °F 59.0 °F 76% 29.90 in 10.0 mi North 23.0 mph 27.6 mph N/A   Overcast
5:52 AM 66.0 °F 57.9 °F 75% 29.94 in 10.0 mi North 20.7 mph - N/A   Overcast
6:52 AM 64.9 °F 55.9 °F 73% 29.97 in 10.0 mi NNW 19.6 mph 27.6 mph N/A   Mostly Cloudy
7:52 AM 64.0 °F 54.0 °F 70% 30.01 in 10.0 mi NNW 20.7 mph 31.1 mph N/A   Mostly Cloudy
8:52 AM 64.9 °F 55.0 °F 70% 30.04 in 10.0 mi NNW 16.1 mph 26.5 mph N/A   Mostly Cloudy
9:52 AM 64.9 °F 52.0 °F 63% 30.06 in 10.0 mi NNW 18.4 mph 26.5 mph N/A   Mostly Cloudy
10:52 AM 63.0 °F 52.0 °F 67% 30.07 in 10.0 mi NNW 12.7 mph - 0.00 in   Mostly Cloudy
11:52 AM 68.0 °F 52.0 °F 56% 30.08 in 10.0 mi NW 12.7 mph - N/A   Mostly Cloudy
12:52 PM 73.0 °F 51.1 °F 46% 30.06 in 10.0 mi NW 15.0 mph 19.6 mph N/A   Scattered Clouds
1:52 PM 73.9 °F 51.1 °F 45% 30.06 in 10.0 mi NW 17.3 mph - N/A   Mostly Cloudy
2:52 PM 75.0 °F 48.0 °F 38% 30.06 in 10.0 mi NNW 16.1 mph 24.2 mph N/A   Scattered Clouds
3:52 PM 75.0 °F 46.9 °F 37% 30.05 in 10.0 mi North 17.3 mph 23.0 mph N/A   Mostly Cloudy
4:52 PM 75.9 °F 46.0 °F 35% 30.04 in 10.0 mi North 13.8 mph 17.3 mph N/A   Mostly Cloudy
5:52 PM 75.0 °F 45.0 °F 34% 30.02 in 10.0 mi NNW 11.5 mph - N/A   Scattered Clouds
6:52 PM 73.9 °F 46.0 °F 37% 30.01 in 10.0 mi NNW 11.5 mph - N/A   Partly Cloudy
7:52 PM 68.0 °F 50.0 °F 52% 30.02 in 10.0 mi NW 6.9 mph - N/A   Scattered Clouds
8:52 PM 64.0 °F 51.1 °F 63% 30.03 in 10.0 mi NNW 3.5 mph - N/A   Scattered Clouds
9:52 PM 66.0 °F 50.0 °F 56% 30.06 in 10.0 mi Calm Calm - N/A   Partly Cloudy
10:52 PM 62.1 °F 51.1 °F 67% 30.09 in 10.0 mi Calm Calm - N/A   Clear
11:52 PM 59.0 °F 51.1 °F 75% 30.12 in 10.0 mi Calm Calm - N/A   Clear